129  
ASUS41 KLWX 270010  
RWRLWX  
 
REGIONAL WEATHER ROUNDUP  
NATIONAL WEATHER SERVICE BALTIMORE MD/WASHINGTON DC  
800 PM EDT SUN MAR 26 2017  
 
NOTE: "FAIR" INDICATES FEW OR NO CLOUDS BELOW 12,000 FEET  
WITH NO SIGNIFICANT WEATHER AND/OR S TO VISIBILITY
.  
TC=TEMPERATURE CELSIUS  
 
* =NON NWS SITE. STATION DOES NOT REPORT PRECIPITATION (E.G. RAIN,  
SNOW, ETC.), THUNDER, OR FOG.
 
 
DCZ001-MDZ009-015-VAZ040>042-051-053>054-270100-  
WASHINGTON METRO  
 
CITY SKY/WX TMP DP RH WIND PRES REMARKS
 
WASHINGTON NAT CLOUDY 48 47 96 E10 30.24S  
DULLES CLOUDY 47 44 90 E6 30.23S  
ANDREWS AFB CLOUDY 46 45 95 E13 30.22F  
FT BELVOIR CLOUDY 48 45 87 E9 30.23S  
QUANTICO CLOUDY 51 48 89 E8 30.23F  
COLLEGE PARK* CLOUDY 45 43 93 E8 30.24S  
LEESBURG* CLOUDY 48 46 93 SE9 30.23S  
MANASSAS* CLOUDY 49 45 86 E7 30.22F  
 

 
 
MDZ006>007-011-014-270100-  
BALTIMORE METRO  
 
CITY SKY/WX TMP DP RH WIND PRES REMARKS
 
BWI AIRPORT CLOUDY 46 46 100 E12 30.24F FOG  
MD SCIENCE CTR N/A 47 43 86 MISG 30.26F  
MARTIN STATE CLOUDY 46 46 100 E7 30.28F FOG  
ANNAPOLIS CLOUDY 47 45 93 E10 30.25F FOG  
FORT MEADE* CLOUDY 45 43 93 E12 30.27S  
 

 
 
MDZ012-015-019>023-270100-  
MARYLAND EASTERN SHORE  
 
CITY SKY/WX TMP DP RH WIND PRES REMARKS
 
OCEAN CITY FOG 45 44 97 NE10 30.26F VSB 1  
SALISBURY CLOUDY 46 46 100 E10 30.25S FOG  
BAY BRIDGE AP* CLOUDY 46 45 93 E10 30.26F FOG  
CAMBRIDGE* CLOUDY 46 45 93 VRB6G14 30.26S FOG  
EASTON* CLOUDY 46 45 93 E7 30.30S FOG  
 

 
 
MDZ017>025-270100-  
SOUTHERN MARYLAND  
 
CITY SKY/WX TMP DP RH WIND PRES REMARKS
 
PATUXENT RIVER CLOUDY 48 48 100 E9 30.24S  
ST INIGOES CLOUDY 49 47 93 E8 30.23F  
LEONARDTOWN* CLOUDY 46 45 93 E6 30.25S  
 

 
 
MDZ003>005-270100-  
NORTH CENTRAL MARYLAND  
 
CITY SKY/WX TMP DP RH WIND PRES REMARKS
 
FREDERICK* CLOUDY 48 48 100 CALM 30.27R FOG  
HAGERSTOWN APT CLOUDY 47 44 90 E6 30.21S  
WESTMINSTER* CLOUDY 45 45 100 SE6 30.23R FOG  
 

 
 
MDZ501>502-270100-  
WESTERN MARYLAND  
 
CITY SKY/WX TMP DP RH WIND PRES REMARKS
 
OAKLAND* FOG 41 41 100 SE15G21 30.09R VSB 1/4  
CUMBERLAND* CLOUDY 48 45 87 NE3 30.20S  
 

 
 
VAZ025>031-270100-  
SHENANDOAH VALLEY  
 
CITY SKY/WX TMP DP RH WIND PRES REMARKS
 
WINCHESTER* CLOUDY 45 43 93 SE8 30.20S FOG  
FRONT ROYAL* CLOUDY 48 45 87 E7 30.18R  
LURAY* CLOUDY 54 50 87 NE7 30.15S  
NEW MARKET* CLOUDY 49 46 88 N5 30.16S  
STAUNTON* CLOUDY 55 49 82 S6 30.17R  
WAYNESBORO* CLOUDY 51 50 95 SE13G21 30.15S  
 

 
 
WVZ021-048>050-054>055-270100-  
EASTERN WEST VIRGINIA PANHANDLE  
 
CITY SKY/WX TMP DP RH WIND PRES REMARKS
 
MARTINSBURG CLOUDY 46 44 93 SE6 30.20S FOG  
PETERSBURG* LGT RAIN 52 46 81 NW3 30.15R  
 

 
 
VAZ036>039-050-270100-  
CENTRAL FOOTHILLS  
 
CITY SKY/WX TMP DP RH WIND PRES REMARKS
 
CHARLOTTESVILL CLOUDY 52 48 86 NE9 30.19S FOG  
CULPEPER* CLOUDY 51 47 87 CALM 30.22F  
ORANGE* CLOUDY 50 46 87 NE7 30.22S  
GORDONSVILLE* CLOUDY 51 48 90 NE5 30.19S  
WARRENTON* CLOUDY 51 45 79 E3 30.21F  
 

 
 
VAZ055>057-270100-  
NORTH AND CENTRAL PIEDMONT  
 
CITY SKY/WX TMP DP RH WIND PRES REMARKS
 
FREDERICKSBRG* CLOUDY 51 49 90 NE5 30.21S  
STAFFORD* CLOUDY 49 48 97 E9 30.26S FOG  
 

 
 
NCZ024-NYZ072-PAZ021-071-VAZ022-071-270100-  
OTHER REGIONAL OBSERVATIONS  
 
CITY SKY/WX TMP DP RH WIND PRES REMARKS
 
NEW YORK CITY CLOUDY 40 36 86 SE8G17 30.39S  
PHILADELPHIA CLOUDY 42 40 92 E14 30.32S  
PITTSBURGH LGT RAIN 55 54 96 SE9 30.02F FOG  
ROANOKE CLOUDY 60 57 89 E7 30.15S  
RICHMOND MOCLDY 59 52 77 E12 30.17S  
RALEIGH MOCLDY 71 50 47 SE8 30.14R  
 

 
 
ANZ530>537-270100-  
MARINE OBSERVATIONS  
 
STATION/POSITION TIME TEMP WIND PRES
 
AIR SEA DIR/SP/G  
(UTC) (F) (DEG/KT/KT) (MB)  
THOMAS PT LIGHT 0000 45 45 100/ 12/ 13 N/A  
BALT KEY BRIDGE 2348 45 100/ 13/ 16 1024.4F  
COVE POINT 2348 47 110/ 10/ 11 1024.6F  
LEWISETTA 2348 50 51 100/ 10/ 12 1023.4F  
SOLOMONS ISLAND 2348 48 48 80/ 11/ 12 N/A  
PINEY POINT 2348 110/ 11/ 13 N/A  
 

 
 
 
 
CLICK HERE TO GO TO PREVIOUS BULLETINS.

The Nexlab VA Page
The Nexlab MD Page
The Nexlab WV Page Main Text Page